When you browse on this site, cookies collect data to enhance your experience and personalize the content and advertising you see.
Visit our Privacy Policy to learn more. By continuing to use the site, you agree to this use of cookies and data.
  • In Lithuania
  • List of Countries
  • For 7 days
  • Water Temperature
  • Satellite Maps
  • Weather Map
  • Weather Widgets
  • user-avatar
    Login

    Hourly Weather Oktyabrskiy

    Today, 11 December, Tuesday

    Time Temperature Precipitation Wind Pressure Humidity
    00:00 -1°C° 0.4 mm 6 mps 739 mmHg 96%
    01:00 -1°C° 0 mm 6 mps 739 mmHg 96%
    02:00 0°C° 0 mm 5 mps 739 mmHg 96%
    03:00 0°C° 0 mm 3 mps 739 mmHg 97%
    04:00 -1°C° 0 mm 4 mps 739 mmHg 97%
    05:00 -1°C° 0 mm 4 mps 739 mmHg 97%
    06:00 -1°C° 0 mm 5 mps 739 mmHg 97%
    07:00 -1°C° 0 mm 5 mps 739 mmHg 97%
    08:00 -1°C° 0 mm 5 mps 739 mmHg 97%
    09:00 -1°C° 0 mm 5 mps 739 mmHg 97%
    10:00 -1°C° 0 mm 5 mps 739 mmHg 97%
    11:00 -2°C° 0 mm 6 mps 739 mmHg 96%
    12:00 -2°C° 0 mm 6 mps 739 mmHg 96%
    13:00 -1°C° 0 mm 6 mps 738 mmHg 96%
    14:00 -1°C° 0 mm 6 mps 738 mmHg 96%
    15:00 -1°C° 0 mm 5 mps 738 mmHg 95%
    16:00 -1°C° 0.2 mm 5 mps 738 mmHg 96%
    17:00 -1°C° 0.2 mm 5 mps 738 mmHg 96%
    18:00 -1°C° 0.2 mm 5 mps 738 mmHg 96%
    19:00 -1°C° 0.9 mm 5 mps 738 mmHg 95%
    20:00 -2°C° 0.9 mm 6 mps 738 mmHg 95%
    21:00 -1°C° 0.9 mm 6 mps 738 mmHg 95%
    22:00 -1°C° 0.3 mm 6 mps 738 mmHg 95%
    23:00 -1°C° 0.3 mm 6 mps 738 mmHg 96%

    Tomorrow, 12 December, Wednesday

    Time Temperature Precipitation Wind Pressure Humidity
    00:00 -1°C° 0.3 mm 6 mps 737 mmHg 96%
    01:00 -1°C° 0 mm 6 mps 737 mmHg 96%
    02:00 +1°C° 0 mm 6 mps 737 mmHg 95%
    03:00 +1°C° 0 mm 6 mps 736 mmHg 95%
    04:00 0°C° 0.1 mm 7 mps 736 mmHg 94%
    05:00 +2°C° 0.1 mm 7 mps 736 mmHg 93%
    06:00 +2°C° 0.1 mm 7 mps 736 mmHg 92%
    07:00 +2°C° 0.1 mm 7 mps 736 mmHg 91%
    08:00 +2°C° 0.1 mm 7 mps 736 mmHg 90%
    09:00 0°C° 0.1 mm 7 mps 736 mmHg 88%
    10:00 +2°C° 0.1 mm 7 mps 736 mmHg 86%
    11:00 +2°C° 0.1 mm 7 mps 736 mmHg 85%
    12:00 +2°C° 0.1 mm 7 mps 736 mmHg 83%
    13:00 +2°C° 0 mm 7 mps 737 mmHg 83%
    14:00 +2°C° 0 mm 7 mps 737 mmHg 83%
    15:00 +1°C° 0 mm 6 mps 737 mmHg 84%
    16:00 +1°C° 0 mm 6 mps 738 mmHg 85%
    17:00 +1°C° 0 mm 6 mps 738 mmHg 86%
    18:00 +1°C° 0 mm 6 mps 738 mmHg 87%
    19:00 -1°C° 0 mm 6 mps 739 mmHg 87%
    20:00 0°C° 0 mm 5 mps 739 mmHg 88%
    21:00 0°C° 0 mm 5 mps 739 mmHg 89%
    22:00 0°C° 0 mm 5 mps 740 mmHg 89%
    23:00 -1°C° 0 mm 4 mps 740 mmHg 89%

    Day after tomorrow, 13 December, Thursday

    Time Temperature Precipitation Wind Pressure Humidity
    00:00 -1°C° 0 mm 4 mps 741 mmHg 90%
    01:00 -1°C° 0 mm 4 mps 741 mmHg 90%
    02:00 -1°C° 0 mm 4 mps 742 mmHg 90%
    03:00 0°C° 0 mm 3 mps 742 mmHg 90%
    04:00 -1°C° 0 mm 3 mps 742 mmHg 90%
    05:00 -1°C° 0 mm 3 mps 742 mmHg 90%
    06:00 -1°C° 0 mm 3 mps 743 mmHg 91%
    07:00 -1°C° 0 mm 3 mps 743 mmHg 91%
    08:00 -1°C° 0 mm 3 mps 743 mmHg 90%
    09:00 -2°C° 0 mm 3 mps 744 mmHg 90%
    10:00 -1°C° 0 mm 3 mps 744 mmHg 86%
    11:00 -1°C° 0 mm 4 mps 745 mmHg 81%
    12:00 0°C° 0 mm 5 mps 745 mmHg 76%
    13:00 0°C° 0 mm 4 mps 745 mmHg 76%
    14:00 +1°C° 0 mm 3 mps 746 mmHg 75%
    15:00 +1°C° 0 mm 3 mps 746 mmHg 75%
    16:00 0°C° 0 mm 3 mps 746 mmHg 78%
    17:00 +1°C° 0 mm 2 mps 747 mmHg 82%
    18:00 -1°C° 0 mm 2 mps 747 mmHg 85%
    19:00 -1°C° 0 mm 2 mps 747 mmHg 86%
    20:00 -1°C° 0 mm 2 mps 748 mmHg 87%
    21:00 -1°C° 0 mm 2 mps 748 mmHg 87%
    22:00 -1°C° 0 mm 2 mps 748 mmHg 88%
    23:00 +1°C° 0 mm 1 mps 748 mmHg 88%

    14 December, Friday

    Time Temperature Precipitation Wind Pressure Humidity
    00:00 0°C° 0 mm 1 mps 749 mmHg 88%
    01:00 0°C° 0 mm 1 mps 749 mmHg 88%
    02:00 0°C° 0 mm 1 mps 749 mmHg 88%
    03:00 0°C° 0 mm 1 mps 749 mmHg 88%
    04:00 0°C° 0 mm 1 mps 749 mmHg 87%
    05:00 +1°C° 0 mm 1 mps 749 mmHg 86%
    06:00 +1°C° 0 mm 1 mps 749 mmHg 85%
    07:00 -1°C° 0 mm 2 mps 749 mmHg 84%
    08:00 -1°C° 0 mm 2 mps 749 mmHg 84%
    09:00 -1°C° 0 mm 2 mps 749 mmHg 83%
    10:00 +1°C° 0 mm 2 mps 750 mmHg 80%
    11:00 +2°C° 0 mm 2 mps 750 mmHg 77%
    12:00 +2°C° 0 mm 2 mps 750 mmHg 74%
    13:00 +2°C° 0 mm 2 mps 750 mmHg 75%
    14:00 +3°C° 0 mm 1 mps 750 mmHg 77%
    15:00 +4°C° 0 mm 1 mps 750 mmHg 79%
    16:00 +3°C° 0 mm 1 mps 750 mmHg 82%
    17:00 +2°C° 0 mm 1 mps 750 mmHg 85%
    18:00 0°C° 0 mm 0 mps 750 mmHg 88%
    19:00 0°C° 0 mm 0 mps 750 mmHg 88%
    20:00 0°C° 0 mm 0 mps 750 mmHg 89%
    21:00 0°C° 0 mm 0 mps 751 mmHg 89%
    22:00 0°C° 0 mm 0 mps 751 mmHg 89%
    23:00 0°C° 0 mm 0 mps 751 mmHg 90%

    15 December, Saturday

    Time Temperature Precipitation Wind Pressure Humidity
    00:00 -1°C° 0 mm 0 mps 751 mmHg 90%
    01:00 -1°C° 0 mm 0 mps 751 mmHg 90%
    02:00 -1°C° 0 mm 0 mps 751 mmHg 90%
    03:00 -1°C° 0 mm 0 mps 751 mmHg 90%
    04:00 -1°C° 0 mm 0 mps 752 mmHg 91%
    05:00 -1°C° 0 mm 0 mps 752 mmHg 91%
    06:00 -1°C° 0 mm 0 mps 752 mmHg 91%
    07:00 -1°C° 0 mm 0 mps 752 mmHg 91%
    08:00 -1°C° 0 mm 0 mps 752 mmHg 90%
    09:00 -1°C° 0 mm 0 mps 753 mmHg 90%
    10:00 0°C° 0 mm 0 mps 753 mmHg 85%
    11:00 +2°C° 0 mm 1 mps 753 mmHg 81%
    12:00 +3°C° 0 mm 1 mps 753 mmHg 76%
    13:00 +3°C° 0 mm 1 mps 753 mmHg 76%
    14:00 +3°C° 0 mm 1 mps 753 mmHg 77%
    15:00 +3°C° 0 mm 1 mps 753 mmHg 77%
    16:00 +2°C° 0 mm 1 mps 754 mmHg 80%
    17:00 0°C° 0 mm 0 mps 754 mmHg 83%
    18:00 -1°C° 0 mm 0 mps 754 mmHg 86%
    19:00 0°C° 0 mm 1 mps 754 mmHg 87%
    20:00 0°C° 0 mm 1 mps 754 mmHg 87%
    21:00 0°C° 0 mm 1 mps 754 mmHg 88%
    22:00 0°C° 0 mm 1 mps 755 mmHg 89%
    23:00 -1°C° 0 mm 1 mps 755 mmHg 90%

    16 December, Sunday

    Time Temperature Precipitation Wind Pressure Humidity
    00:00 -1°C° 0 mm 1 mps 755 mmHg 90%
    01:00 -1°C° 0 mm 1 mps 755 mmHg 91%
    02:00 -3°C° 0 mm 2 mps 755 mmHg 91%
    03:00 -3°C° 0 mm 2 mps 755 mmHg 92%
    04:00 -3°C° 0 mm 2 mps 755 mmHg 92%
    05:00 -3°C° 0 mm 2 mps 755 mmHg 92%
    06:00 -4°C° 0 mm 2 mps 755 mmHg 92%
    07:00 -4°C° 0 mm 2 mps 755 mmHg 90%
    08:00 -4°C° 0 mm 2 mps 756 mmHg 89%
    09:00 -4°C° 0 mm 3 mps 756 mmHg 87%
    10:00 -4°C° 0 mm 3 mps 756 mmHg 84%
    11:00 -4°C° 0 mm 3 mps 756 mmHg 80%
    12:00 -2°C° 0 mm 3 mps 756 mmHg 76%
    13:00 -2°C° 0 mm 3 mps 756 mmHg 76%
    14:00 -2°C° 0 mm 3 mps 756 mmHg 75%
    15:00 -2°C° 0 mm 3 mps 755 mmHg 74%
    16:00 -4°C° 0 mm 3 mps 755 mmHg 76%
    17:00 -4°C° 0 mm 3 mps 756 mmHg 79%
    18:00 -5°C° 0 mm 3 mps 756 mmHg 81%
    19:00 -5°C° 0 mm 3 mps 756 mmHg 81%
    20:00 -5°C° 0 mm 3 mps 756 mmHg 81%
    21:00 -5°C° 0 mm 3 mps 756 mmHg 81%
    22:00 -5°C° 0 mm 3 mps 756 mmHg 82%
    23:00 -5°C° 0 mm 3 mps 756 mmHg 82%
    Show more